This is the latest recevied weather packets stored in our database for station/object M0CJS. If no packets are shown the sender has not sent any weather packets the latest 10 day(s).
| Time | Temp. | Humidity | Pressure | Rain* | Wind** | Luminosity | Snow |
|---|---|---|---|---|---|---|---|
| 1777727717 | 20° C | 55% | 1017 hPa | 0 mm | - | - | - |
| 1777724717 | 20° C | 57% | 1017 hPa | 0 mm | - | - | - |
| 1777723517 | 20° C | 56% | 1017.5 hPa | 0 mm | - | - | - |
| 1777722317 | 19.44° C | 60% | 1017.5 hPa | 0 mm | - | - | - |
| 1777721117 | 18.89° C | 60% | 1017.8 hPa | 0 mm | - | - | - |
| 1777719917 | 18.89° C | 63% | 1018.3 hPa | 0 mm | - | - | - |
| 1777718717 | 18.89° C | 62% | 1018.4 hPa | 0 mm | - | - | - |
| 1777714557 | 16.67° C | 68% | 1019.1 hPa | 0 mm | - | - | - |
| 1777711517 | 15° C | 75% | 1019.3 hPa | 0 mm | - | - | - |
| 1777710916 | 15° C | 76% | 1019.3 hPa | 0 mm | - | - | - |
| 1777710316 | 14.44° C | 76% | 1019.4 hPa | 0 mm | - | - | - |
| 1777709716 | 14.44° C | 78% | 1019.3 hPa | 0 mm | - | - | - |
| 1777707937 | 12.78° C | 83% | 1019.5 hPa | 0 mm | - | - | - |
| 1777703116 | 11.11° C | 89% | 1019.3 hPa | 0 mm | - | - | - |
| 1777698336 | 9.44° C | 91% | 1019.1 hPa | 0 mm | - | - | - |
| 1777697716 | 9.44° C | 91% | 1019.3 hPa | 0 mm | - | - | - |
| 1777697116 | 9.44° C | 91% | 1019.3 hPa | 0 mm | - | - | - |
| 1777695316 | 9.44° C | 89% | 1019.3 hPa | 0 mm | - | - | - |
| 1777692916 | 10.56° C | 87% | 1019.4 hPa | 0 mm | - | - | - |
| 1777691116 | 11.11° C | 86% | 1019.6 hPa | 0 mm | - | - | - |
| 1777687516 | 11.67° C | 86% | 1019.8 hPa | 0 mm | - | - | - |
| 1777685116 | 12.22° C | 86% | 1020.1 hPa | 0 mm | - | - | - |
| 1777679119 | 12.22° C | 90% | 1020.6 hPa | 0 mm | - | - | - |
| 1777677918 | 12.22° C | 89% | 1020.7 hPa | 0 mm | - | - | - |
| 1777676117 | 12.22° C | 89% | 1020.9 hPa | 0 mm | - | - | - |
* Rain latest hour (hover to see other rain measurements)
** Current wind speed in m/s (hover to see current wind gust speed)